GFSSGP_sfc_dewp_000.txt.gz
Dewpoint
65 63 57 45 44 43 41 39 38 29 28 26 26 25 24 27 29 31 48 58 59 60 68 71 73 73 72 71 71 71 71 69 68 67 67 66 66 65 64 65 64 63 62 62 62 62 62 63 64
60 55 44 48 44 42 42 40 34 26 26 26 26 26 27 36 44 44 53 61 58 62 67 70 73 73 72 72 72 72 71 70 68 68 68 68 67 66 66 66 66 65 64 64 63 62 62 62 62
48 42 43 48 45 41 41 39 35 30 25 25 25 28 32 35 45 44 50 62 60 62 67 69 73 73 73 72 72 72 72 71 70 69 68 68 67 67 67 67 66 66 66 65 64 64 63 63 64
49 52 50 43 40 41 40 39 34 25 21 24 28 32 36 41 45 47 61 64 62 64 65 70 73 73 73 72 71 72 71 71 69 69 68 68 67 68 68 66 66 66 65 65 66 65 64 65 65
53 50 44 41 41 40 36 35 24 21 23 22 25 36 38 43 48 50 58 63 62 64 67 71 74 73 73 72 71 72 72 71 70 69 68 67 67 67 66 65 65 65 65 65 66 65 66 66 65
48 43 36 34 34 34 31 30 32 26 24 23 34 35 35 43 46 47 46 51 62 67 70 71 73 73 73 73 72 71 70 68 67 66 66 66 66 66 65 65 65 64 64 65 65 66 66 66 66
45 42 39 35 35 32 33 32 31 27 27 22 31 35 41 42 43 45 43 56 62 66 68 70 71 72 73 71 71 70 69 67 64 62 62 62 62 63 63 63 64 64 64 64 66 66 66 66 66
44 41 37 35 33 31 32 26 27 29 28 27 28 38 38 41 43 43 44 47 57 61 63 66 66 66 67 68 69 68 66 63 63 63 62 62 62 62 62 63 63 63 63 63 65 66 66 66 66
44 39 37 36 33 33 33 29 26 27 27 27 27 36 40 43 42 42 42 42 44 51 59 62 62 64 64 65 65 66 64 63 64 63 62 63 61 59 60 62 63 64 64 64 64 64 65 64 65
42 40 39 39 36 33 34 31 26 24 25 27 33 41 43 41 40 40 40 41 40 43 46 51 54 57 61 63 63 63 61 62 62 60 59 59 59 59 61 62 62 62 64 64 64 64 64 64 60
41 38 39 39 37 34 33 32 27 23 22 24 29 39 41 41 40 40 40 39 39 43 49 52 54 56 57 59 61 60 59 59 59 59 59 59 59 59 59 59 61 60 62 62 63 63 62 61 61
39 40 40 39 37 34 31 31 29 25 25 26 31 39 41 40 40 39 39 39 42 45 47 50 55 56 57 59 59 59 60 59 58 59 59 59 59 58 59 60 60 60 61 60 61 61 61 61 61
40 39 39 37 35 34 33 30 27 26 29 30 32 37 39 40 39 39 37 41 43 47 52 54 56 58 60 59 60 59 59 59 59 59 59 60 59 58 61 61 60 59 59 60 60 60 60 60 60
39 40 39 37 36 35 33 32 28 29 31 30 29 35 35 37 37 39 42 43 45 48 53 54 56 59 60 59 59 60 59 60 60 60 60 60 59 60 60 58 59 58 58 59 59 59 59 60 59
31 33 35 35 31 29 30 28 28 30 30 30 28 30 34 35 38 39 42 43 45 47 53 54 57 58 59 59 59 59 60 61 60 60 60 59 59 59 59 58 58 58 58 58 59 59 59 59 59
26 26 25 27 28 28 29 27 29 31 30 31 31 28 30 34 38 40 43 45 45 49 52 54 56 57 57 57 58 60 61 60 60 60 60 60 61 60 58 58 58 58 57 57 57 58 58 58 58
24 22 23 24 29 29 28 27 29 30 30 30 31 33 33 32 39 42 44 47 46 50 52 53 54 55 56 58 59 60 60 60 61 60 60 60 60 59 58 58 58 58 57 57 57 56 57 57 57
20 22 25 25 26 28 28 28 28 29 30 29 31 34 36 35 38 44 48 47 47 52 53 55 55 55 58 58 58 60 59 61 61 61 60 60 60 59 58 58 58 58 56 56 57 56 57 57 57
25 24 25 25 26 28 28 28 28 31 32 28 30 32 35 38 44 47 50 49 49 53 54 55 55 56 57 56 57 57 58 59 60 61 61 61 59 59 58 58 58 57 56 56 56 56 56 57 57
23 25 24 25 25 26 26 27 29 31 32 31 32 33 35 43 46 49 50 49 50 53 55 55 55 56 57 56 59 58 58 59 60 60 61 61 60 61 59 58 58 57 57 56 57 56 56 56 57
23 22 26 25 27 27 27 27 30 32 35 34 33 35 41 43 45 48 49 49 50 52 55 56 56 57 55 57 59 58 58 58 59 60 60 59 59 61 59 59 58 57 57 56 56 57 56 55 57
21 25 25 28 28 25 27 24 26 27 27 28 29 32 40 41 44 47 49 49 50 50 53 55 56 55 55 57 57 56 57 56 57 58 59 59 59 59 59 59 58 58 57 56 57 58 57 57 56
23 25 26 27 27 25 23 22 23 27 25 27 30 35 41 40 44 47 49 49 49 52 53 55 54 56 57 56 57 58 56 57 58 57 57 58 59 60 59 59 58 57 57 57 58 57 57 58 57
25 27 26 26 26 23 23 24 23 25 26 28 31 37 39 42 45 49 50 50 50 51 53 54 52 54 56 57 57 57 56 57 56 56 57 57 58 60 58 59 57 57 57 57 57 58 58 57 59
24 24 23 23 23 24 25 25 26 29 31 28 25 35 41 44 48 50 50 49 50 51 53 53 53 54 55 55 57 56 57 56 55 55 56 55 56 56 56 57 58 57 57 59 59 58 59 57 59
13 16 23 19 21 21 24 21 22 27 28 30 32 39 43 45 48 49 50 49 49 50 52 52 52 50 51 55 56 56 58 57 56 57 57 56 56 56 57 58 58 59 59 60 59 60 61 60 59
14 17 17 22 26 21 23 25 30 29 30 38 41 42 43 45 48 50 49 48 46 49 51 51 53 51 50 54 56 57 58 57 57 57 57 57 57 58 58 58 58 59 59 59 61 61 60 61 61
11 18 18 23 19 19 22 23 25 25 31 40 41 42 44 46 48 49 48 47 46 49 48 48 53 50 52 54 54 57 59 59 58 57 57 57 57 57 58 58 59 59 59 59 61 60 60 61 62
11 14 23 23 24 21 19 21 28 24 28 39 39 42 43 45 47 48 47 48 46 47 45 48 52 50 51 53 54 58 59 59 59 59 57 57 57 58 58 59 59 59 59 60 60 59 60 61 61
11 13 23 20 20 21 23 21 30 30 34 38 40 41 43 45 47 47 47 48 47 46 46 51 50 50 49 51 51 55 59 59 59 58 58 58 57 58 59 59 60 60 59 60 60 60 60 59 60

GFSSGP_sfc_dewp_003.txt.gz
Dewpoint
65 63 56 45 43 43 41 40 38 37 26 27 27 25 23 26 26 25 47 57 55 56 64 71 73 72 71 71 70 70 70 69 67 67 66 65 64 63 64 64 64 64 63 62 62 61 61 61 62
62 56 47 49 43 41 40 43 38 34 25 26 26 27 28 33 45 46 54 59 59 62 67 70 73 72 72 72 71 71 70 69 68 67 65 65 65 66 65 65 65 65 65 65 64 63 62 62 61
54 43 41 47 44 42 40 41 38 36 31 25 25 32 33 38 46 47 52 60 60 63 67 69 73 73 72 72 72 72 71 70 69 67 67 67 67 67 67 66 65 66 66 66 66 65 64 63 63
46 51 49 44 43 43 41 41 40 36 22 24 28 33 35 41 46 46 61 59 60 62 65 69 73 73 73 73 72 72 71 70 69 68 68 68 67 67 67 67 66 66 65 65 65 66 65 65 65
53 49 46 43 42 42 40 38 27 23 23 24 28 33 35 40 47 57 62 58 58 61 65 69 73 73 73 73 72 71 71 71 71 69 69 68 67 67 67 66 65 65 64 64 65 65 67 66 65
47 44 38 36 35 34 35 34 30 27 26 29 32 34 35 42 50 60 62 60 60 63 66 70 73 73 73 73 72 72 72 72 70 68 68 67 67 67 66 66 65 64 64 64 64 66 67 67 67
44 42 39 36 36 35 34 32 30 29 26 27 33 32 36 42 47 53 56 59 63 64 67 71 71 72 73 73 72 72 71 69 68 67 65 62 62 62 62 63 63 63 63 64 64 66 67 66 66
45 41 40 36 34 33 34 30 27 28 26 30 40 35 36 40 45 43 53 60 63 66 68 69 69 70 70 70 72 71 69 68 66 63 62 62 62 62 62 62 63 63 63 63 63 63 66 66 65
43 39 37 37 34 34 34 32 32 29 27 26 28 37 39 42 43 43 47 52 56 61 63 65 66 65 65 67 68 69 68 65 63 63 63 63 61 60 60 61 61 63 63 63 63 63 65 65 64
41 39 37 35 36 35 36 36 35 29 29 25 28 36 44 42 41 41 44 46 47 54 57 62 62 63 63 65 64 63 62 61 62 62 60 59 59 59 59 61 62 63 63 63 64 64 64 63 62
41 36 37 36 38 40 37 35 36 28 29 30 26 31 42 41 41 41 41 42 45 49 51 56 58 60 61 62 62 62 60 59 60 60 59 58 59 59 59 59 59 60 62 61 62 62 62 62 60
38 40 39 37 38 39 37 37 34 32 31 32 30 36 41 40 40 41 41 40 39 44 49 53 55 57 58 59 60 60 58 59 58 58 59 58 58 58 57 58 59 59 59 59 59 60 61 61 60
38 38 38 39 39 38 37 35 34 33 34 31 30 39 41 40 40 41 40 40 40 44 49 52 55 56 57 58 59 58 59 59 58 58 58 59 58 57 58 59 60 61 60 60 59 59 60 60 60
40 39 40 40 40 39 36 36 36 36 36 33 31 38 41 40 40 40 39 39 43 46 48 53 55 57 59 58 58 59 59 59 59 59 59 59 59 58 58 60 59 58 57 58 58 59 59 59 59
28 28 30 32 35 35 36 33 32 32 32 31 30 32 39 41 41 40 39 40 43 47 51 54 56 58 59 58 58 58 59 59 59 59 60 60 59 58 59 58 57 57 57 57 58 58 58 58 58
23 26 24 28 32 34 30 30 30 31 31 32 32 31 35 38 40 40 41 42 46 50 52 54 56 58 58 57 57 58 59 59 59 59 59 60 60 59 58 57 57 57 57 56 56 56 57 57 57
24 21 22 23 28 29 29 27 30 33 31 31 31 33 31 34 38 39 43 45 45 51 52 54 56 57 57 56 57 58 59 59 59 59 59 60 61 61 58 57 57 57 56 56 56 55 56 56 56
16 19 21 23 25 27 27 29 30 31 32 31 31 31 33 32 34 38 45 45 48 51 53 54 55 55 56 57 57 58 58 58 59 60 60 60 60 60 57 56 57 57 56 55 55 55 56 56 56
17 19 18 20 25 27 28 29 30 30 31 30 32 32 33 36 39 44 47 46 50 52 53 55 55 56 57 56 55 56 56 57 58 59 61 60 61 59 58 57 57 56 55 55 55 55 55 55 56
22 22 23 25 26 27 26 26 27 29 29 30 31 33 33 40 45 47 45 46 50 53 54 54 55 56 56 55 57 57 57 58 58 59 61 61 61 59 58 58 57 56 55 54 55 55 55 55 56
22 20 21 22 26 28 27 27 28 28 31 34 34 34 37 40 45 47 45 47 51 53 54 54 54 55 56 56 57 57 57 57 58 58 58 58 59 59 59 58 57 56 56 54 54 55 56 54 56
21 24 23 24 26 25 29 25 26 28 28 28 30 31 34 40 45 47 46 47 50 52 54 55 55 55 55 58 56 55 55 54 56 56 57 57 58 59 59 58 57 56 56 55 55 57 56 56 55
21 25 26 28 26 26 25 25 25 27 26 27 27 29 33 41 45 47 47 48 50 51 53 55 55 54 56 57 56 57 54 56 56 56 56 56 58 59 59 58 57 56 56 55 56 56 56 56 56
20 26 26 25 27 24 24 25 24 25 25 26 28 29 40 41 46 48 48 48 49 51 53 55 53 55 56 56 56 56 55 55 55 55 55 55 56 59 57 58 56 56 56 57 57 56 56 56 57
19 24 22 22 24 24 25 25 25 27 29 27 28 31 41 45 49 48 47 48 49 50 53 52 52 54 56 57 57 56 56 56 55 55 55 54 54 57 55 56 56 56 57 57 57 57 57 56 57
16 21 24 20 21 22 25 24 24 28 29 31 30 34 43 46 49 48 48 48 49 50 52 53 52 53 54 56 56 55 56 55 54 55 56 54 54 55 55 57 57 57 59 59 58 58 58 57 58
15 21 25 21 26 22 24 26 28 28 28 35 38 40 43 46 48 49 49 48 49 50 51 52 51 50 51 55 55 56 56 55 55 55 55 55 55 56 56 57 57 58 58 59 59 59 59 59 59
15 19 15 18 16 18 23 23 24 24 30 37 40 40 44 47 49 49 49 48 49 50 51 51 52 50 50 54 55 56 58 56 56 56 56 55 55 56 56 57 57 58 58 59 59 59 61 61 61
13 13 18 22 24 22 20 23 27 23 29 36 38 41 44 47 48 49 48 47 47 49 49 50 52 50 52 54 53 57 58 58 56 56 56 56 55 56 56 57 58 58 58 59 58 59 60 61 61
14 12 13 15 18 22 23 22 28 26 27 37 39 42 44 47 48 48 47 47 46 47 46 48 51 50 51 52 53 56 58 58 57 56 56 56 56 56 57 58 59 59 58 58 59 58 59 60 61

GFSSGP_sfc_dewp_006.txt.gz
Dewpoint
66 61 53 46 42 43 41 41 39 39 36 27 26 25 26 28 42 32 49 58 52 53 63 71 73 72 71 71 70 70 69 68 67 65 64 63 63 63 63 63 64 64 63 63 62 62 61 61 61
63 57 49 49 42 40 40 43 40 39 37 27 27 27 27 26 44 48 53 58 53 59 64 70 73 73 72 71 71 71 70 69 68 66 65 63 64 63 64 64 64 65 64 65 65 64 63 62 61
53 43 46 47 44 41 39 41 40 39 38 32 25 29 31 34 45 47 54 59 60 60 66 69 73 73 72 72 71 71 71 70 68 66 65 65 66 67 67 65 65 65 65 66 65 65 65 64 63
46 49 49 45 44 44 42 43 44 36 31 26 28 30 35 37 44 47 56 60 60 62 66 69 73 73 72 72 72 72 71 70 69 67 67 67 67 67 67 66 66 66 66 65 64 65 66 66 65
52 50 46 43 44 44 43 42 40 31 26 23 30 29 33 40 48 55 59 59 59 63 65 68 73 73 73 73 72 72 71 71 71 69 68 68 68 67 67 66 66 66 66 64 64 64 67 67 66
47 45 40 38 39 38 37 39 35 32 29 24 30 34 33 42 50 58 59 58 58 62 65 68 72 73 73 72 72 72 72 71 71 70 70 68 68 67 67 66 66 66 65 64 63 66 66 67 66
45 41 38 37 36 37 37 36 30 29 29 28 31 31 32 40 47 60 60 58 59 61 65 68 70 72 73 73 72 72 71 71 72 71 69 68 67 64 63 63 64 64 64 64 64 64 66 67 65
45 41 39 38 34 33 34 30 29 30 32 34 38 30 28 37 48 55 58 59 62 63 64 67 70 71 71 71 73 72 72 71 70 68 67 63 62 62 62 62 62 63 62 62 63 64 64 66 66
44 39 36 35 35 33 34 33 35 34 30 28 30 32 36 45 46 51 55 57 61 64 65 67 68 68 68 69 71 72 69 68 68 65 63 65 62 61 61 62 61 61 62 63 63 63 64 65 64
41 39 37 35 34 35 36 38 38 34 36 31 28 31 38 44 45 48 51 54 57 61 63 65 66 66 66 67 66 66 65 64 62 62 62 61 61 60 61 61 61 62 63 63 63 64 64 64 63
41 38 38 36 35 38 39 39 40 37 36 37 34 34 36 42 43 44 47 51 54 57 61 63 63 63 63 64 63 63 61 61 61 61 61 60 59 59 60 60 60 60 61 62 62 62 63 63 62
40 40 38 37 37 37 37 39 39 39 38 38 37 36 39 41 42 42 44 48 49 50 56 60 61 61 61 61 61 61 60 59 59 59 60 59 58 59 59 58 59 60 61 61 61 62 62 63 62
38 39 39 40 39 38 39 39 38 38 39 39 38 35 34 41 41 42 43 45 44 44 50 57 58 59 59 59 59 59 59 59 59 58 59 59 58 58 59 59 59 61 61 61 61 61 61 61 62
40 39 38 39 38 37 38 38 39 40 41 39 37 36 35 41 41 41 42 42 42 43 49 54 56 57 58 58 58 59 59 59 59 59 59 59 59 59 59 59 60 60 60 60 60 60 61 61 61
27 28 29 29 28 30 33 34 34 37 38 35 34 33 34 41 42 41 41 42 42 45 51 54 55 57 57 58 58 58 59 59 59 59 60 60 60 59 59 59 60 59 59 59 59 59 60 60 60
24 26 22 23 29 30 33 28 31 34 34 33 32 32 34 36 41 41 42 43 45 49 51 54 55 57 58 57 57 58 59 59 59 59 60 61 61 60 59 59 59 59 59 59 58 58 59 59 59
23 18 19 20 23 25 31 25 30 33 33 32 33 34 34 34 39 43 43 44 49 50 53 54 57 57 57 57 57 57 58 59 59 60 60 60 61 61 59 59 58 59 58 58 57 57 58 58 58
19 19 21 19 20 26 26 27 29 29 31 33 34 34 34 36 35 38 44 46 51 52 53 55 56 57 57 56 57 58 58 59 59 60 60 60 61 61 60 59 58 58 58 57 57 57 58 58 58
20 16 14 19 22 24 25 27 29 31 31 30 30 31 33 35 39 43 46 47 51 52 53 54 55 55 56 56 56 56 57 58 59 60 61 61 61 61 59 58 58 58 57 57 57 57 57 57 58
23 18 16 21 26 26 27 26 27 28 29 30 31 30 31 36 43 45 46 47 50 52 53 54 55 55 56 55 57 57 57 58 59 60 61 62 62 61 59 58 58 58 57 56 57 57 56 57 58
22 21 20 21 26 28 27 25 27 29 31 31 32 35 35 36 42 45 45 47 50 52 54 55 55 56 56 56 57 57 57 57 58 58 59 59 59 60 60 59 59 58 57 56 56 57 57 56 57
24 25 24 25 26 21 28 25 26 28 28 29 28 29 33 37 44 46 45 49 50 52 54 55 55 56 56 57 56 55 56 56 57 57 58 59 59 60 60 59 59 58 57 57 57 57 58 58 57
25 25 25 27 26 25 25 24 24 28 27 27 29 29 30 34 45 46 46 49 52 53 54 55 55 55 56 57 56 57 56 56 57 57 58 59 59 60 59 59 58 58 58 57 57 58 58 58 58
23 23 25 26 25 21 22 24 23 26 26 27 29 30 37 42 47 47 48 50 51 53 54 55 55 54 56 56 57 57 55 56 56 56 56 57 57 59 59 58 58 58 58 58 58 58 58 58 59
22 20 18 20 21 21 23 24 20 27 29 27 27 30 41 46 47 47 47 48 50 52 54 54 54 54 55 56 57 56 57 56 56 56 56 56 56 58 57 58 57 58 58 59 59 59 59 58 59
20 20 19 14 20 22 26 24 25 30 30 31 31 32 43 47 47 46 47 48 49 51 53 53 52 54 56 56 57 56 57 56 56 56 57 56 56 57 57 58 58 59 60 59 59 60 59 59 60
18 18 21 22 24 22 24 26 27 29 27 28 34 40 43 47 47 47 47 48 50 51 53 52 52 53 54 55 56 56 57 55 56 57 57 56 56 57 58 58 59 60 60 60 60 61 61 60 60
16 20 18 19 17 18 21 24 24 26 25 32 37 38 43 48 48 47 48 49 50 52 52 53 52 51 52 55 56 56 57 56 57 57 57 56 57 58 58 58 59 60 60 61 61 61 61 62 61
15 16 19 19 22 20 19 22 28 26 26 29 34 38 44 47 48 48 48 49 49 51 51 52 53 51 52 55 55 57 58 57 56 57 57 56 56 57 58 59 59 59 60 60 61 61 61 61 61
14 14 20 15 20 21 23 23 29 28 28 30 34 40 44 47 48 48 48 47 48 50 50 50 52 52 52 55 55 57 58 58 57 57 57 57 56 57 58 59 59 59 59 60 60 60 61 61 61

GFSSGP_sfc_dewp_009.txt.gz
Dewpoint
63 59 51 46 37 41 33 38 40 39 37 29 29 28 28 32 39 27 52 58 57 50 59 70 73 72 71 71 70 70 69 68 67 65 64 63 63 62 62 63 63 63 64 63 63 62 62 61 61
58 53 50 47 38 38 38 43 42 39 40 39 29 26 27 26 37 43 52 59 57 53 65 65 73 72 72 71 71 70 70 69 68 67 65 64 64 63 63 64 64 64 64 63 65 65 64 63 62
53 46 47 46 45 39 38 41 40 42 41 34 31 27 28 31 43 46 54 60 56 57 65 68 73 73 72 72 71 71 71 70 69 67 66 66 66 66 66 65 65 65 65 64 66 66 65 65 64
44 47 48 41 39 44 43 42 44 43 35 30 26 27 34 37 42 46 57 57 57 57 64 67 73 73 72 72 72 72 71 71 70 68 68 67 68 68 68 67 67 66 65 65 66 64 66 67 66
52 51 37 41 39 42 44 45 44 39 36 30 26 27 33 37 46 51 58 58 55 56 63 65 73 73 73 72 72 72 71 71 70 70 68 68 69 68 68 68 66 66 66 66 65 66 67 67 66
43 47 38 30 31 37 39 39 40 36 34 30 29 29 32 40 47 52 57 58 55 57 61 66 72 73 73 72 72 72 72 71 71 71 70 69 69 68 68 67 67 66 66 66 65 66 66 67 67
41 41 32 34 31 32 32 36 36 34 31 32 30 28 33 37 42 52 57 58 58 59 61 66 67 71 73 73 72 72 72 72 71 71 70 70 68 67 66 64 64 64 65 65 65 65 66 66 65
44 42 37 36 30 29 31 33 30 32 32 33 34 30 36 39 46 55 57 57 56 59 61 64 67 67 68 68 73 73 72 72 71 71 70 68 66 62 62 63 62 63 63 63 63 64 65 65 66
45 37 31 31 32 29 32 31 35 36 36 34 32 36 37 42 49 54 57 57 57 58 62 64 65 68 67 66 68 72 71 71 71 69 67 65 61 61 61 60 62 61 61 62 63 63 63 64 64
41 38 35 34 32 31 33 35 36 36 35 36 37 38 37 39 44 46 53 53 55 58 60 61 67 67 68 66 68 68 67 65 66 65 64 63 64 63 61 61 62 61 62 63 63 64 64 64 59
39 37 37 36 35 35 35 35 36 35 34 34 36 38 40 41 43 46 48 50 51 56 59 62 66 68 68 67 68 67 66 65 66 65 64 64 63 62 61 60 61 61 60 59 60 60 58 62 61
36 38 38 37 37 37 36 36 37 38 38 39 40 41 40 41 42 44 46 50 52 55 59 63 66 68 69 66 66 64 64 64 62 62 65 64 62 62 62 59 60 61 60 61 61 60 62 62 63
39 37 38 39 39 39 39 39 39 38 38 38 39 41 42 43 42 44 45 48 53 55 58 63 66 67 68 67 64 64 63 61 61 62 63 63 62 63 62 61 61 61 59 61 62 62 61 61 62
31 36 36 37 38 38 37 37 37 38 40 38 40 41 40 41 41 42 46 48 52 54 57 62 64 67 66 64 65 63 64 62 62 62 62 63 62 62 61 61 61 61 62 61 61 60 60 59 62
35 35 37 37 38 37 34 29 30 33 33 35 37 38 40 40 39 42 46 51 52 53 55 61 64 66 65 64 63 62 61 62 61 62 64 63 64 64 64 62 62 64 65 64 63 62 61 60 61
24 26 21 22 26 26 26 22 25 29 32 34 36 37 37 39 40 42 46 52 53 52 54 59 59 63 64 64 62 60 61 61 62 62 63 63 64 64 64 63 62 63 64 64 61 60 59 59 59
25 19 21 21 24 23 28 23 23 29 31 33 34 35 36 38 42 48 47 50 53 53 56 58 61 61 62 63 61 62 63 62 62 62 62 64 64 64 64 62 62 64 61 60 61 60 60 59 59
20 21 21 21 21 21 19 23 26 29 30 33 34 35 37 38 40 45 48 50 53 55 59 61 60 61 62 61 61 61 61 62 62 62 63 64 64 64 64 64 63 62 60 60 60 61 60 60 62
23 23 23 24 21 19 19 22 28 29 31 31 33 35 38 41 42 43 47 51 53 56 58 60 61 62 60 58 58 59 59 61 62 63 64 64 65 64 64 64 62 61 59 61 61 61 59 59 61
21 22 21 21 20 22 22 24 27 29 29 30 35 36 38 40 41 44 48 51 54 56 58 60 60 61 61 59 61 61 62 62 62 64 64 64 64 64 63 62 61 61 60 61 61 60 58 61 61
20 18 20 20 21 23 24 23 23 25 32 31 32 35 38 40 43 46 48 51 53 55 57 59 60 61 61 62 61 62 63 62 61 62 63 63 62 62 63 62 61 62 61 61 61 61 60 60 59
18 20 20 20 22 16 25 19 25 25 27 28 30 36 38 39 43 47 48 50 53 55 57 59 60 61 61 62 61 62 60 59 61 62 62 63 61 62 62 63 62 62 60 60 59 60 61 61 60
19 20 23 23 24 24 22 22 22 26 25 26 29 30 37 39 42 47 48 50 53 55 57 59 61 61 62 62 62 61 62 61 62 62 62 63 63 62 61 62 62 62 60 61 61 61 60 63 62
24 23 25 26 24 20 21 23 21 23 24 24 30 33 36 42 47 48 50 52 53 55 57 59 60 61 61 62 62 63 62 61 60 61 61 61 61 63 62 60 62 62 61 61 60 61 61 61 63
26 26 18 17 18 17 21 22 23 23 23 27 30 32 39 47 48 48 50 50 53 54 56 57 59 59 61 61 61 62 61 61 60 60 61 61 61 61 62 62 62 63 62 62 62 61 61 61 61
25 24 17 18 18 15 25 20 22 29 28 28 32 36 41 48 48 48 49 51 52 55 57 57 58 58 60 60 61 61 62 59 59 60 61 60 60 60 62 61 62 63 62 62 62 61 60 62 63
22 21 21 16 25 21 24 28 31 32 32 34 34 37 43 48 49 48 50 51 52 55 57 57 57 58 60 60 61 61 61 60 60 61 62 60 61 61 61 61 62 62 62 63 63 61 62 61 62
14 18 19 17 14 13 16 24 24 30 30 32 34 39 44 48 48 48 49 51 53 55 57 58 58 58 59 59 61 60 61 60 61 61 61 61 61 61 61 61 62 62 63 63 64 63 63 62 63
16 18 19 21 18 14 11 13 33 33 33 32 34 41 45 47 47 48 49 51 53 55 56 57 56 56 57 58 60 60 60 59 60 60 60 60 61 61 59 60 60 61 62 63 62 62 61 61 63
16 18 22 14 21 16 21 17 32 36 34 35 34 41 45 47 47 47 48 50 51 53 54 55 56 55 55 58 58 60 61 60 60 60 60 59 59 60 59 60 60 60 62 62 61 60 61 61 62

GFSSGP_sfc_dewp_015.txt.gz
Dewpoint
60 46 41 39 33 26 25 25 29 31 32 32 32 30 27 27 25 27 43 48 47 50 64 68 72 72 72 71 70 70 69 68 66 65 64 62 61 60 60 60 61 62 62 62 63 63 63 62 62
34 34 40 39 26 23 22 27 30 33 34 35 33 32 30 28 29 31 39 51 49 52 65 63 73 72 72 71 71 71 70 68 67 66 65 64 64 63 62 62 62 64 63 63 63 64 65 64 64
46 35 38 32 29 24 26 35 33 33 34 29 29 29 27 30 33 35 50 52 50 53 64 64 73 72 72 72 71 71 71 70 68 66 66 65 65 65 64 63 63 64 65 65 65 64 66 66 66
31 37 38 36 30 28 30 34 33 33 33 30 27 26 29 34 33 39 47 51 50 52 60 69 72 73 72 72 72 71 71 71 70 68 67 66 66 67 66 65 65 65 66 66 66 65 66 66 65
35 35 30 27 24 25 29 31 36 36 33 30 28 28 29 38 39 42 47 49 50 51 55 65 73 73 73 73 72 72 71 71 71 69 68 67 68 68 68 66 67 67 68 68 67 67 67 66 65
36 35 32 25 22 21 24 27 28 28 30 28 29 29 31 36 37 39 43 46 47 49 54 58 73 73 73 73 72 72 72 72 71 71 70 69 69 69 69 68 68 68 68 67 67 67 67 67 65
34 34 30 26 22 21 24 28 27 26 26 27 29 29 32 34 41 40 41 44 46 47 50 54 68 72 73 73 72 72 72 72 72 71 71 71 70 70 69 69 68 67 66 65 65 66 66 66 66
33 33 30 28 26 23 26 28 28 27 26 30 33 30 32 36 38 37 36 37 40 44 47 53 61 68 69 67 73 73 73 72 72 72 71 71 70 70 69 67 65 64 63 63 63 64 64 65 66
32 30 28 28 27 26 26 26 27 30 31 31 31 32 34 35 36 38 37 36 38 42 48 51 54 62 66 62 65 73 72 72 72 71 71 70 64 62 65 65 63 62 62 62 62 62 63 64 64
30 31 31 30 28 28 28 27 28 28 30 31 31 33 34 35 36 36 34 32 36 39 45 49 62 60 64 59 63 68 66 66 66 65 64 67 65 63 61 64 62 62 62 62 62 63 64 64 59
31 31 33 32 30 30 30 30 29 30 31 31 31 33 35 36 37 35 33 32 36 40 44 50 64 68 65 62 59 65 64 64 65 65 66 67 62 63 61 61 62 63 64 61 61 62 61 60 60
32 33 33 32 32 31 30 29 30 31 32 32 31 35 36 35 36 34 33 35 36 42 44 52 57 68 70 61 57 60 62 63 62 63 67 65 61 64 64 60 61 63 59 60 59 56 59 60 60
27 29 30 31 31 31 31 30 31 31 32 33 33 35 36 36 33 33 33 36 40 46 47 49 61 68 70 72 60 63 63 60 63 60 63 63 61 64 62 64 62 62 59 62 62 62 62 60 60
28 27 26 27 27 29 30 30 30 32 32 32 33 34 34 33 31 34 35 38 43 48 49 51 60 69 70 69 71 68 68 63 61 59 59 63 63 64 61 62 62 63 61 60 61 62 65 63 62
30 28 29 28 26 26 29 29 30 31 31 32 32 32 32 31 30 33 36 41 44 47 52 61 65 69 72 72 70 67 63 61 60 59 62 62 65 65 65 63 63 67 68 66 63 63 65 60 60
28 30 28 28 27 27 28 28 30 31 31 31 29 28 29 32 31 34 37 44 51 52 57 60 56 67 72 72 69 66 62 61 57 57 59 64 65 65 65 63 63 68 68 68 66 64 63 61 59
29 27 27 27 28 28 28 28 30 30 30 32 32 30 30 32 35 42 38 42 52 57 62 59 65 63 71 72 68 68 69 60 57 57 58 61 63 63 66 64 65 68 68 68 65 64 63 62 57
24 25 26 25 25 26 26 28 29 28 28 30 30 30 31 32 34 38 40 43 48 54 60 63 64 69 71 69 69 63 60 60 57 58 59 61 62 63 65 64 66 67 67 65 65 64 63 60 64
23 23 23 24 25 25 26 26 27 28 29 29 31 32 33 33 35 39 40 46 52 55 60 63 66 70 69 66 63 60 57 59 57 59 62 62 63 65 64 64 66 67 66 65 65 63 62 62 62
21 21 23 25 25 26 27 26 28 29 30 31 32 32 33 33 34 35 39 53 55 58 61 63 64 69 69 65 64 59 59 56 57 58 62 63 62 63 64 65 66 66 66 64 62 63 61 62 62
21 22 24 23 26 27 28 28 28 28 30 30 30 31 32 34 35 37 38 54 56 59 61 62 64 68 68 67 63 62 60 59 58 56 59 63 62 64 64 64 65 64 66 64 64 64 62 60 64
19 21 23 24 25 23 26 22 27 27 27 27 29 30 31 33 35 36 38 54 57 58 61 63 65 66 64 67 65 67 59 55 54 58 57 60 61 61 62 63 63 63 67 63 63 62 61 64 61
18 20 23 24 23 24 22 21 23 24 24 26 28 28 31 32 34 34 43 53 56 59 61 63 64 63 64 64 66 59 60 55 56 56 60 63 63 62 61 62 63 64 62 64 63 63 63 65 64
16 19 22 24 22 20 22 21 21 21 23 24 27 28 30 31 34 39 50 54 56 58 60 62 63 63 63 61 62 63 61 59 57 58 60 64 65 64 63 59 61 63 63 62 62 63 63 64 65
18 23 19 21 20 22 21 20 22 25 23 25 27 28 29 38 45 48 51 53 55 57 59 60 61 62 61 61 61 61 62 62 62 60 63 62 61 64 64 61 63 61 63 63 63 63 63 64 64
17 22 18 21 19 16 20 19 19 24 26 26 26 28 40 45 47 49 51 53 54 57 58 58 60 60 60 60 60 61 62 58 57 61 59 65 61 62 62 62 62 63 62 63 63 60 60 62 64
18 17 21 21 20 18 16 21 24 27 28 26 28 29 40 46 49 50 52 53 54 56 57 58 58 59 59 59 60 61 61 59 63 63 62 60 62 61 60 60 62 62 61 62 63 65 63 62 62
17 18 18 20 19 18 17 20 17 25 24 25 30 30 37 46 48 50 51 53 54 55 56 58 59 58 57 59 59 59 60 61 61 61 60 63 62 59 60 60 62 62 61 62 64 64 63 63 65
13 15 19 22 18 17 18 16 23 27 26 26 27 32 42 46 47 49 50 52 54 55 56 58 57 56 56 58 58 62 61 60 60 61 59 63 61 62 58 57 59 60 61 62 64 63 62 62 63
15 19 23 19 23 16 16 18 28 27 29 35 33 39 44 46 46 47 49 52 52 54 55 56 55 54 55 56 57 61 60 60 62 61 60 60 61 59 56 56 55 57 60 62 62 61 61 61 61

GFSSGP_sfc_dewp_021.txt.gz
Dewpoint
62 59 51 45 33 31 28 30 29 35 33 32 30 31 30 33 34 39 50 61 63 67 70 71 72 71 71 71 70 70 69 68 68 66 64 63 63 61 61 61 61 61 61 61 61 62 62 62 61
52 43 39 42 31 29 29 26 34 38 39 35 27 30 28 41 46 47 52 62 65 67 69 69 72 71 71 71 70 70 69 69 69 67 64 63 63 63 62 61 61 62 62 62 62 62 63 65 64
56 43 31 34 36 30 28 28 43 45 44 35 32 30 32 37 46 48 55 64 65 66 67 68 72 72 71 71 71 70 70 70 69 67 66 65 64 65 65 63 63 63 64 64 64 64 64 64 67
45 43 32 34 35 36 32 33 45 46 45 43 35 32 35 45 42 47 62 64 64 65 64 70 72 72 71 71 71 71 70 70 70 68 67 66 66 67 67 65 64 64 64 65 66 66 66 66 66
44 38 29 30 30 33 29 28 46 45 42 41 38 35 37 43 47 48 57 63 64 64 62 70 72 72 72 72 71 71 71 70 70 70 69 68 69 69 68 66 66 66 66 67 67 68 68 68 67
34 31 30 30 30 31 30 28 25 32 27 26 28 34 39 44 45 47 48 57 63 63 63 68 72 73 72 72 72 71 71 71 71 70 70 70 70 70 69 68 67 68 68 68 68 67 67 68 67
34 29 30 30 29 29 30 28 26 27 26 29 31 33 38 41 41 42 44 46 54 62 64 68 68 70 73 72 72 71 71 71 71 70 70 70 70 70 70 70 69 69 69 69 67 67 66 66 67
33 29 27 28 29 30 32 30 28 28 30 32 32 32 33 42 43 41 38 36 35 60 67 67 68 68 69 70 72 72 71 71 71 71 71 71 71 71 71 70 71 69 68 68 66 65 64 64 66
37 27 26 26 29 30 31 29 30 32 31 33 35 36 37 37 35 36 37 37 37 51 66 68 68 68 67 68 71 72 72 72 71 71 71 70 68 68 68 69 70 69 68 67 66 65 64 63 64
45 29 25 27 27 29 30 29 30 30 33 33 35 38 38 37 37 36 37 35 35 35 64 67 68 68 68 66 68 70 70 70 70 70 70 69 67 65 64 67 71 69 69 68 66 65 64 63 62
43 39 33 28 27 28 29 30 31 31 32 34 35 36 37 36 36 40 38 37 35 35 46 65 67 68 67 65 68 69 69 69 70 68 68 68 66 65 66 64 67 65 67 63 64 62 62 61 61
35 35 37 33 29 28 28 30 30 31 32 34 32 35 37 36 36 36 36 37 37 35 39 64 67 68 67 64 66 68 67 68 68 68 66 67 66 66 64 63 64 63 63 62 61 62 61 61 62
32 32 32 34 32 30 30 30 30 30 33 34 32 32 35 36 37 39 39 40 40 39 39 61 67 68 66 63 66 66 66 66 66 66 66 66 66 63 62 62 63 63 64 63 62 62 62 62 62
31 32 30 30 31 32 31 30 28 29 31 29 28 29 33 36 37 38 40 39 40 42 43 58 64 66 65 63 65 66 66 66 65 66 66 66 65 63 64 64 62 62 61 61 62 61 61 60 61
24 23 27 32 29 27 28 26 27 28 29 28 29 30 32 34 35 37 38 39 43 44 45 59 63 64 64 64 63 65 66 66 65 65 66 66 64 63 64 63 63 63 63 62 62 62 62 61 61
24 24 21 23 27 29 29 25 27 29 29 32 31 30 31 35 38 38 38 44 44 43 46 56 63 65 65 63 67 66 67 65 65 65 66 65 64 64 64 63 62 63 64 63 62 61 61 61 61
25 22 22 22 24 25 27 26 30 31 31 30 31 31 31 33 37 41 42 38 40 46 51 59 65 67 68 68 67 68 66 64 63 63 64 66 65 65 64 63 62 63 64 63 62 62 61 60 60
23 24 23 22 24 25 25 26 28 29 29 29 30 32 33 35 35 36 43 46 45 49 55 59 64 68 69 69 68 68 66 64 64 63 64 64 65 65 64 63 62 63 63 62 62 61 61 60 60
23 23 23 24 25 26 26 26 27 29 29 28 29 32 34 33 37 40 44 44 46 58 61 63 67 69 69 68 67 66 64 63 63 64 63 64 64 64 63 63 63 63 62 61 61 60 60 59 60
22 19 19 22 25 25 25 25 28 28 28 29 29 35 35 37 39 38 39 42 51 55 62 65 69 69 69 67 67 65 62 63 61 62 62 62 62 62 62 62 61 62 61 61 60 59 58 58 59
20 18 17 18 24 23 22 22 23 25 28 32 33 33 37 38 38 38 37 42 58 60 64 66 69 68 68 67 67 64 61 61 60 61 63 62 62 64 63 62 62 61 61 60 59 59 58 56 57
18 20 19 20 21 18 22 19 22 23 25 27 28 30 32 32 32 36 37 55 59 62 63 64 68 68 68 66 64 61 60 60 60 60 62 63 62 62 63 62 62 61 61 60 60 60 58 57 56
19 21 19 20 17 17 18 21 20 28 27 27 29 32 34 35 37 39 42 58 61 62 63 66 67 66 66 64 62 60 58 60 61 62 61 62 61 61 61 61 61 61 61 60 60 60 59 59 57
17 21 20 18 17 15 17 19 18 21 24 28 30 30 30 32 36 45 57 59 61 63 65 66 66 64 64 62 62 60 60 60 59 61 61 61 61 61 61 61 60 60 60 60 60 60 59 59 59
15 14 16 16 16 15 16 18 20 27 28 26 27 29 37 46 53 55 57 59 61 63 64 64 64 62 62 63 60 62 59 60 59 59 60 60 61 60 60 60 59 60 61 61 61 59 60 60 59
8 14 15 15 16 15 17 18 20 24 28 30 29 29 49 52 53 55 57 59 61 62 63 62 61 61 62 60 62 61 60 60 61 60 60 61 60 61 59 60 61 61 62 62 61 60 61 60 59
9 9 15 15 19 15 18 19 21 21 23 30 28 32 48 52 54 55 56 58 61 61 61 62 61 61 61 60 62 61 61 61 61 61 60 60 60 59 61 60 61 61 61 62 61 60 59 60 59
14 13 16 14 14 16 17 16 19 25 24 26 31 44 49 51 53 54 56 58 60 60 61 61 61 60 61 61 61 60 61 61 60 60 60 60 60 59 60 60 61 61 61 62 60 59 61 61 61
19 10 13 16 17 16 17 19 25 24 28 30 35 46 48 50 53 54 56 58 59 59 60 60 60 60 59 61 59 59 59 60 59 60 60 59 59 60 59 60 61 61 61 61 60 59 60 61 61
26 27 14 17 15 18 21 21 31 34 34 28 37 46 48 51 52 54 56 56 57 58 59 59 59 59 58 61 60 60 60 60 60 59 60 58 56 56 57 59 61 61 62 60 60 60 61 60 59

GFSSGP_sfc_dewp_024.txt.gz
Dewpoint
62 55 50 45 31 32 29 30 30 30 36 39 29 31 34 35 37 38 53 59 65 67 70 71 72 72 71 71 70 70 69 68 67 66 64 63 62 62 61 61 61 61 61 61 61 61 62 62 61
51 45 39 41 30 29 30 27 26 38 41 42 37 32 42 43 48 53 57 64 64 69 70 70 72 72 71 71 70 70 69 68 68 66 64 63 63 62 62 62 61 62 62 62 61 62 62 64 64
52 45 31 34 35 30 29 31 38 43 43 41 37 37 39 44 50 52 60 65 66 68 69 69 72 72 72 71 70 70 69 69 68 66 65 65 64 64 64 62 63 63 64 63 64 64 64 64 66
44 43 33 31 33 34 35 35 41 43 41 38 38 35 37 44 46 54 64 65 65 67 68 71 72 72 72 71 71 70 70 70 69 68 67 66 66 66 66 64 64 64 64 65 66 66 66 66 66
44 37 27 30 31 33 34 34 38 41 41 40 37 35 42 49 50 63 64 63 63 64 65 70 72 72 72 72 71 70 70 70 70 70 68 67 68 68 66 66 65 65 65 66 66 67 68 68 67
34 32 29 27 28 30 32 32 34 43 43 39 40 39 39 44 56 62 63 62 62 62 63 68 72 72 71 71 71 70 70 70 70 70 70 69 70 69 68 67 66 66 67 68 68 68 68 68 67
35 30 28 30 29 30 31 33 29 35 32 30 33 36 40 43 46 58 61 61 63 62 61 66 68 70 72 71 71 71 70 70 70 70 70 70 70 70 70 69 68 68 68 69 69 68 67 67 67
34 30 27 27 28 29 32 31 30 29 28 34 34 36 37 40 43 45 49 56 62 62 62 65 65 68 69 69 72 71 71 70 70 70 70 70 70 70 70 70 70 69 70 69 69 68 66 65 65
37 30 26 26 27 28 31 34 35 33 32 34 37 35 36 39 41 38 37 37 54 61 64 66 66 65 68 67 69 71 71 71 70 70 70 70 68 68 68 70 70 70 70 70 68 67 66 65 64
45 36 29 27 28 27 27 28 30 30 32 33 35 39 36 38 37 36 37 36 46 57 64 66 67 65 65 65 66 69 68 68 68 68 67 68 67 66 68 68 70 70 71 69 68 67 66 64 61
45 41 36 30 32 30 27 28 29 29 29 33 35 35 35 36 37 37 36 36 35 42 62 66 66 66 65 62 65 68 68 68 68 68 67 68 67 66 66 64 66 69 70 66 67 65 64 61 61
40 43 44 44 41 35 30 29 28 29 30 34 35 35 36 37 37 37 37 36 35 36 60 65 66 66 66 64 64 66 67 67 68 68 67 67 65 64 63 63 64 64 64 63 62 62 61 61 61
26 38 37 38 38 37 36 34 32 30 32 34 35 33 32 34 35 37 38 37 36 37 45 64 66 66 66 64 65 66 66 66 68 68 67 67 65 64 64 63 62 63 62 62 62 61 62 61 61
26 27 33 34 32 32 32 33 33 33 35 33 30 31 31 31 35 35 38 39 39 39 40 61 65 66 66 64 64 66 66 66 66 66 65 66 65 64 63 62 61 63 63 62 62 62 61 61 62
23 22 22 23 27 31 30 29 30 31 32 30 30 30 32 33 35 36 38 39 40 40 42 59 65 66 66 64 64 66 66 66 65 65 65 66 65 64 63 63 63 62 62 61 62 61 61 61 60
26 25 21 23 23 25 30 29 31 31 29 29 29 29 31 34 35 34 37 39 41 43 42 51 62 66 66 64 64 65 66 66 65 65 66 66 65 64 63 63 62 62 62 62 61 61 61 60 60
25 23 21 22 24 25 25 25 30 32 30 31 32 33 33 33 35 38 39 41 43 44 42 47 62 64 65 64 64 65 66 66 65 66 67 66 65 64 64 63 62 62 62 61 61 61 60 59 59
23 23 23 22 24 24 23 23 25 27 27 27 28 29 31 32 34 36 39 41 43 44 46 51 62 63 64 65 66 66 65 64 64 65 66 65 64 64 63 62 62 62 62 61 60 60 60 59 59
24 24 23 25 25 24 24 25 25 27 30 30 31 32 31 32 35 38 39 42 45 46 49 56 65 65 66 65 66 65 62 62 62 63 64 64 64 64 63 63 62 62 61 61 60 59 59 59 60
21 22 23 23 22 25 25 24 25 26 28 29 30 31 31 31 36 39 40 42 44 48 56 59 65 67 67 66 64 64 62 62 61 63 64 64 64 63 63 62 61 61 61 60 59 59 57 57 58
21 19 21 21 21 19 20 20 24 25 27 27 30 32 34 36 37 38 39 39 47 54 61 64 67 67 67 66 64 61 61 60 59 62 62 62 62 62 62 61 61 60 60 59 58 58 57 55 56
19 22 21 20 20 18 19 16 19 20 21 23 26 27 29 30 36 38 37 41 54 59 64 67 67 67 67 66 62 60 59 58 59 60 61 62 62 62 62 62 61 60 59 59 59 59 57 56 54
17 24 21 22 21 19 18 20 16 23 22 23 26 30 32 33 34 35 34 47 58 63 65 67 67 67 65 64 62 60 59 58 59 61 61 61 61 61 62 61 60 60 59 59 59 59 58 57 55
12 20 21 21 20 16 17 17 16 17 21 25 27 28 29 30 32 36 52 60 61 64 66 66 66 64 63 62 60 58 59 59 60 60 60 59 59 60 60 61 60 59 59 59 59 59 58 58 57
13 14 14 17 17 16 17 16 16 22 23 23 23 25 27 34 48 57 58 60 62 64 65 64 63 62 62 60 59 59 59 59 59 59 59 59 59 59 59 59 59 59 59 60 59 59 58 58 58
8 11 16 13 17 16 16 16 19 20 19 19 21 26 46 53 56 57 59 61 63 64 63 62 61 61 60 60 59 59 59 59 59 59 59 59 59 59 59 59 59 59 60 61 61 59 59 59 59
18 7 10 13 14 17 19 19 22 19 18 18 20 44 51 54 56 58 60 62 62 62 62 60 60 60 60 60 60 60 61 60 59 59 59 59 59 59 59 60 60 60 61 61 61 60 59 59 58
22 21 12 14 12 12 17 18 17 22 20 22 23 46 52 55 56 58 60 61 61 61 61 60 60 59 60 60 60 60 60 60 60 60 59 59 58 59 60 59 60 61 60 60 60 59 60 60 60
20 18 14 15 17 13 17 19 22 22 23 27 30 49 52 54 55 58 60 60 60 61 60 60 60 59 60 59 59 60 59 59 59 58 59 59 58 59 59 59 60 60 60 59 59 60 60 61 60
24 23 25 18 12 17 19 17 20 23 24 28 46 50 52 53 55 58 59 59 59 60 59 59 59 59 59 58 58 59 59 59 59 59 59 58 57 58 58 58 60 60 61 60 59 60 61 59 59

GFSSGP_sfc_dewp_027.txt.gz
Dewpoint
64 59 48 44 30 32 29 28 30 30 36 37 38 30 36 38 38 34 52 60 64 67 71 72 73 72 72 71 70 70 69 68 67 66 64 63 62 62 61 61 60 60 60 61 61 61 62 61 60
51 47 40 40 29 29 27 29 26 31 41 42 35 39 42 41 47 54 53 63 65 68 70 70 73 72 72 71 71 70 69 69 68 66 64 63 63 62 62 62 61 61 62 62 62 61 62 63 63
50 44 32 34 33 28 27 30 32 41 43 40 36 39 42 44 52 55 59 64 67 68 69 69 72 72 72 71 71 70 69 69 68 66 66 64 64 64 63 63 62 62 62 62 62 63 63 63 64
43 42 33 30 31 34 31 34 36 38 38 42 37 33 40 47 49 51 64 65 66 67 68 70 72 72 72 72 71 70 69 69 69 68 67 66 65 66 65 63 63 63 64 64 65 65 65 65 65
43 34 27 28 30 33 35 35 32 32 39 40 37 36 39 48 53 63 64 64 63 66 67 68 72 72 72 72 71 70 70 69 69 69 68 67 67 67 65 64 65 65 65 65 66 66 67 67 67
35 33 28 23 25 30 32 32 32 40 42 41 38 38 42 49 59 61 63 63 62 64 66 67 72 72 72 71 71 70 70 69 69 69 69 68 68 68 66 65 65 65 65 65 67 67 68 68 68
32 29 27 29 29 30 31 33 30 30 31 32 36 36 42 47 53 61 62 62 62 62 64 67 69 71 72 71 71 70 70 69 70 69 69 69 69 69 68 68 67 66 67 68 68 69 69 68 67
35 30 27 27 27 27 31 34 32 31 31 33 39 37 37 42 45 51 58 61 63 61 61 64 67 68 68 69 71 71 70 70 70 70 70 70 70 70 70 69 69 67 68 69 69 69 69 67 66
35 29 26 26 27 28 32 33 33 36 35 33 35 39 39 41 43 43 44 54 61 62 60 63 65 66 67 67 69 71 71 71 70 70 70 69 68 68 67 69 68 68 69 69 69 69 69 66 65
40 30 26 27 26 28 27 29 35 35 34 32 33 38 38 39 38 40 39 41 54 60 61 64 64 63 66 65 65 68 68 67 68 68 67 68 66 66 67 68 68 68 69 69 69 69 67 66 62
45 41 30 27 27 29 32 30 29 28 28 30 31 36 35 37 37 37 37 37 38 51 61 64 64 63 64 63 64 67 68 67 68 67 66 66 66 66 66 65 66 67 69 68 68 67 65 63 61
43 44 43 40 38 41 38 37 35 29 29 31 33 34 36 35 36 37 37 37 36 42 56 63 65 65 63 62 63 63 66 65 67 67 66 66 65 63 63 63 63 65 66 66 64 63 63 62 61
30 40 42 42 42 43 44 43 41 38 35 35 34 34 36 36 35 36 37 38 37 37 47 60 65 65 64 62 61 62 65 64 65 67 67 66 65 64 63 62 62 63 63 63 62 61 61 60 61
26 29 29 32 36 36 35 34 34 34 36 35 35 36 34 33 33 33 35 37 39 39 39 57 65 65 65 64 61 62 63 63 65 66 66 66 65 63 63 62 62 62 62 62 62 61 60 60 61
24 22 24 24 24 28 33 30 31 33 33 33 33 32 32 34 34 35 36 37 37 38 40 56 63 65 65 65 63 63 63 63 65 66 66 65 64 63 63 63 62 62 62 61 61 61 60 60 60
25 23 19 22 24 25 25 28 31 34 32 32 32 31 31 32 34 35 37 38 38 40 40 45 57 65 65 65 64 64 65 64 64 65 65 65 65 64 63 63 62 62 61 61 60 60 60 60 60
25 25 23 21 25 26 24 27 30 30 30 31 32 33 34 34 36 38 39 38 38 39 41 43 62 65 65 65 64 64 65 65 65 65 65 65 65 64 64 63 62 62 61 60 60 59 59 58 58
24 24 26 24 23 24 23 24 26 29 29 29 29 30 30 31 31 33 35 38 40 43 45 45 60 64 65 65 63 64 65 65 65 65 66 65 65 65 64 62 62 61 61 60 60 59 59 59 58
21 23 25 25 25 23 23 24 24 26 27 26 27 27 28 31 35 36 37 39 42 44 44 47 56 62 64 64 64 64 64 64 64 65 66 65 65 65 63 62 61 61 60 60 59 58 58 57 59
18 19 21 24 25 24 25 25 26 27 27 28 30 31 32 32 33 34 37 40 42 43 46 47 54 63 63 64 64 63 63 62 63 64 65 65 65 64 62 62 61 61 60 59 59 60 56 56 58
19 20 20 22 24 23 22 20 20 24 28 28 29 30 32 33 33 33 36 40 41 44 49 53 59 63 65 63 62 61 61 61 61 61 62 63 64 63 62 62 61 60 60 59 58 57 56 55 55
14 21 22 23 22 18 20 16 17 17 18 24 24 25 28 31 32 36 35 37 40 43 56 62 64 65 65 64 62 60 60 58 59 61 61 62 63 62 62 61 60 60 59 58 58 58 56 55 54
18 20 22 21 21 20 21 19 14 18 17 18 20 23 26 28 31 32 34 35 38 52 62 65 65 65 64 62 61 60 58 58 59 61 60 60 61 62 62 61 60 59 58 58 58 58 57 56 55
16 20 19 20 20 18 18 19 16 15 17 20 25 26 27 29 30 32 41 47 58 63 65 65 65 64 63 61 60 59 58 59 60 59 59 59 59 60 60 60 60 59 58 58 58 58 57 57 56
14 12 15 16 18 17 19 18 17 22 23 22 23 24 26 27 29 42 54 58 62 64 64 64 64 62 61 60 59 59 58 59 59 59 59 58 58 58 59 59 58 58 58 58 58 58 58 57 57
11 11 14 12 15 15 17 17 18 21 22 20 20 21 26 35 51 56 58 60 62 63 62 63 62 60 60 59 59 59 59 59 59 59 59 58 58 59 59 59 58 58 59 59 59 59 58 58 58
20 8 10 7 15 13 18 20 22 21 17 21 21 21 30 45 55 57 60 61 62 61 60 62 60 59 59 58 59 59 59 59 58 58 58 58 58 59 59 58 58 59 60 60 60 60 59 59 59
19 20 9 11 10 11 16 17 18 22 18 24 23 24 38 54 57 59 60 60 61 60 60 60 59 59 59 59 59 59 59 59 59 59 58 58 58 58 58 58 59 59 60 60 60 59 59 59 59
19 21 18 11 14 14 14 18 23 21 21 22 23 26 49 55 57 59 60 60 60 60 60 58 59 59 59 59 59 59 59 59 59 58 58 58 57 58 58 59 59 60 59 59 58 59 60 60 60
23 22 23 16 11 16 17 15 18 20 20 23 35 40 54 56 58 59 59 60 60 59 59 58 59 58 58 59 59 58 58 58 57 58 58 58 57 58 58 58 59 60 60 59 58 59 61 59 59

GFSSGP_sfc_dewp_030.txt.gz
Dewpoint
65 61 48 43 30 31 27 26 28 29 34 36 35 39 40 40 38 36 53 61 64 64 71 72 73 73 72 71 71 71 70 69 68 67 66 65 65 63 62 63 60 60 59 60 61 61 61 61 60
53 48 41 39 24 26 19 29 28 28 40 43 38 41 40 37 43 49 50 62 64 66 70 71 74 73 72 72 71 71 70 69 68 68 66 65 65 64 62 61 61 61 61 61 61 61 61 62 62
46 42 34 35 30 24 20 29 28 36 39 41 38 38 42 41 50 52 58 64 67 68 69 70 73 73 72 72 71 71 70 69 68 68 67 66 66 66 65 62 62 62 63 62 62 62 62 63 63
45 41 34 30 31 34 28 32 36 35 33 39 39 33 41 48 51 53 63 66 66 67 68 69 73 73 72 72 71 71 70 69 69 68 68 67 66 66 65 63 63 63 63 63 64 64 64 64 64
42 34 26 28 28 31 34 35 34 31 33 37 38 35 41 45 57 62 63 65 65 67 67 69 73 73 72 72 72 71 70 70 69 69 68 67 67 67 65 64 64 64 65 65 65 66 66 66 67
36 33 28 21 24 29 31 32 32 33 40 40 38 38 41 45 56 61 63 63 63 66 67 68 72 72 72 72 71 71 70 70 70 69 69 68 68 67 66 65 65 65 65 65 66 66 67 69 68
33 30 27 28 29 29 30 32 31 30 31 32 37 37 38 45 55 62 62 62 62 64 66 66 70 71 72 72 71 71 70 70 70 69 69 69 69 68 68 67 67 66 67 67 67 68 69 69 68
34 30 28 28 25 25 30 33 32 33 34 35 36 37 37 42 50 60 61 61 61 62 64 65 68 69 69 70 72 71 70 70 70 70 69 69 69 69 69 68 69 67 67 68 68 69 69 68 67
34 29 26 26 27 26 30 32 33 36 36 35 37 37 39 42 45 51 54 57 61 61 61 63 66 67 68 68 69 71 71 71 70 70 70 69 67 68 67 69 69 68 68 69 69 69 70 68 66
35 29 25 26 27 28 28 29 29 30 30 32 37 37 37 38 40 43 47 51 57 60 61 60 63 65 67 66 67 68 68 67 68 68 68 68 67 67 68 68 68 68 69 69 70 69 69 67 65
44 35 24 23 25 28 28 29 33 34 31 30 31 34 34 35 38 38 41 45 48 54 61 61 61 64 65 64 65 67 68 67 68 67 67 68 67 67 68 67 67 67 69 68 69 69 68 65 64
42 44 39 35 34 34 31 37 37 37 34 35 33 34 35 35 36 36 38 39 39 41 52 61 62 63 63 63 63 64 66 66 66 67 67 67 66 65 66 65 65 65 67 68 67 67 66 65 64
42 40 44 44 43 42 44 44 44 42 43 40 38 38 37 36 37 38 38 37 39 39 40 54 63 64 63 63 62 62 64 64 64 66 66 66 66 65 64 64 63 63 65 66 66 65 64 63 62
27 33 36 38 38 38 38 38 37 38 40 39 38 37 37 37 37 36 35 35 38 40 40 43 62 64 64 62 62 62 62 63 64 65 66 65 65 64 64 63 62 62 63 64 64 63 62 62 62
24 22 24 26 29 31 35 33 33 36 37 36 35 34 35 36 36 36 36 37 37 39 42 45 55 64 65 64 62 61 61 63 63 64 66 65 65 64 63 63 62 63 63 63 63 63 62 62 61
25 21 20 23 24 25 30 27 30 34 34 34 34 34 34 34 35 35 37 39 41 42 42 44 55 63 65 65 64 62 62 63 63 64 66 66 64 64 63 62 63 64 63 63 63 62 61 61 61
25 19 21 21 24 25 25 26 31 32 31 32 32 33 34 34 37 40 40 40 41 42 43 43 50 61 64 65 65 64 64 64 64 65 65 65 65 64 63 63 63 63 63 62 62 62 62 61 61
20 24 24 23 24 24 24 25 27 30 30 30 31 32 33 34 35 36 37 38 40 43 45 46 47 56 63 64 64 63 64 65 65 65 65 65 65 64 64 63 63 63 63 62 62 61 61 61 61
20 21 24 25 26 24 24 24 25 26 27 26 27 28 29 30 31 36 39 41 42 44 46 47 50 60 64 64 63 62 63 64 64 65 65 65 65 65 64 64 63 63 62 62 61 61 61 60 61
19 19 19 23 24 24 24 23 25 26 27 27 28 28 30 31 34 36 37 39 41 42 45 47 50 60 64 64 63 64 64 64 64 65 66 66 65 65 64 63 62 62 62 62 61 62 59 59 60
19 18 19 21 23 22 23 22 23 24 24 24 25 28 29 31 34 34 35 37 38 42 45 47 51 59 63 63 62 62 62 62 62 63 64 65 65 65 64 63 63 62 62 61 61 60 59 58 58
15 21 22 24 22 19 22 18 20 21 22 22 24 25 28 32 33 34 35 36 37 38 44 50 56 62 63 63 62 62 61 60 61 62 63 64 64 64 63 63 62 62 62 61 60 60 59 58 56
16 18 18 19 19 20 20 19 16 18 17 19 20 20 21 25 29 30 30 32 36 40 48 58 62 64 63 63 62 62 60 59 61 62 62 62 62 63 62 62 62 62 61 60 60 60 59 58 58
15 19 20 21 21 17 17 18 15 14 14 18 20 22 23 24 28 31 34 43 51 60 63 64 63 62 63 62 61 60 59 60 61 60 60 61 61 61 62 62 62 61 60 60 60 60 60 59 58
13 16 15 16 17 13 17 17 14 19 22 23 22 24 27 29 30 30 36 56 60 62 62 64 63 61 61 61 60 60 60 60 60 60 60 60 59 60 60 61 60 60 60 60 60 60 60 60 59
12 11 15 13 14 10 18 17 17 21 21 22 24 23 24 25 27 40 55 59 61 62 63 62 61 60 60 60 60 60 60 60 60 60 60 60 60 60 60 60 60 60 60 60 60 60 60 60 60
16 10 12 7 13 11 17 19 21 19 20 22 21 23 24 25 31 54 59 61 62 62 62 61 60 59 59 59 59 59 59 60 59 59 60 59 60 60 60 61 60 59 60 61 61 60 60 60 60
18 17 8 9 6 10 14 15 16 19 24 23 23 24 26 36 55 57 59 60 60 60 60 59 59 59 59 59 59 59 59 59 59 60 59 59 60 60 60 59 60 60 61 61 61 61 61 60 60
19 19 19 11 14 13 13 16 22 18 19 21 25 31 43 48 56 58 59 60 59 59 59 59 58 58 59 59 59 59 59 59 59 59 59 59 59 59 59 59 60 60 61 60 60 60 60 60 60
23 22 22 16 13 12 15 13 19 21 24 26 29 50 53 55 57 58 59 60 59 58 58 58 58 58 59 59 59 59 59 58 58 59 59 58 58 59 59 60 60 60 60 60 60 59 61 60 59

GFSSGP_sfc_dewp_036.txt.gz
Dewpoint
56 53 34 38 27 18 13 13 23 32 32 35 37 39 36 36 35 37 51 53 54 57 65 71 74 74 74 73 73 72 72 72 73 73 72 71 71 69 68 67 65 64 62 60 60 59 60 60 61
52 36 36 29 19 13 12 19 24 30 37 35 37 40 38 38 39 42 46 57 57 61 66 63 74 73 73 73 73 73 73 72 72 72 71 71 70 69 67 65 63 62 61 61 61 62 62 62 62
47 33 25 20 16 10 14 20 28 32 33 33 35 37 38 42 43 43 49 58 58 64 66 64 74 73 73 73 73 72 72 72 72 72 71 70 70 68 67 66 65 62 62 63 63 63 63 64 64
35 31 25 22 16 14 13 29 29 31 31 34 34 35 39 45 45 43 55 55 59 64 64 69 73 73 73 73 72 72 72 71 71 71 70 70 69 68 67 67 66 64 63 63 63 63 64 65 65
36 28 18 16 14 15 21 22 27 29 27 32 36 35 37 45 52 52 54 54 56 60 62 66 73 73 73 73 73 72 71 71 70 70 69 69 69 68 68 67 66 65 65 64 64 65 66 66 66
30 24 17 13 14 15 17 17 20 24 26 31 36 37 37 48 52 51 51 52 51 57 61 62 73 73 73 73 72 72 71 71 70 70 70 69 69 69 68 68 67 67 67 66 66 67 67 67 67
33 23 16 12 11 15 15 16 16 20 29 32 37 37 39 45 48 51 50 51 54 55 60 61 66 71 73 73 72 72 71 71 70 70 69 69 69 69 68 68 68 68 68 69 69 68 68 68 68
32 28 22 16 13 14 14 24 16 20 29 34 39 36 39 45 53 53 51 52 54 56 58 61 64 64 65 66 73 72 72 71 70 70 70 70 70 69 69 68 68 69 69 69 69 68 68 68 69
36 30 25 19 17 15 18 16 17 28 32 34 35 37 41 49 53 51 52 52 52 55 61 62 61 64 63 58 64 72 72 71 71 70 70 69 62 63 62 64 67 69 69 69 68 68 69 69 69
35 30 28 24 21 18 15 18 19 28 32 34 35 38 38 47 49 45 44 45 48 51 56 60 66 64 65 58 62 67 64 66 65 64 64 64 62 62 58 62 69 69 69 69 69 69 70 69 61
36 31 30 29 27 22 19 17 17 22 29 34 34 35 35 37 39 38 36 37 38 42 45 57 65 68 66 64 61 62 64 63 64 65 66 66 61 62 60 59 62 64 68 64 66 67 65 64 62
32 35 34 31 30 26 23 22 20 19 21 31 33 35 37 39 39 39 39 39 39 41 46 55 63 68 70 64 63 62 62 63 63 63 68 66 64 65 63 58 60 62 60 62 64 63 65 64 64
30 30 32 34 34 33 29 26 25 24 24 23 25 28 37 39 41 42 42 42 43 45 48 50 55 66 69 70 64 66 64 63 64 63 65 65 62 66 62 62 58 60 59 60 62 63 64 65 65
23 27 29 30 31 34 33 33 33 32 33 34 38 39 37 36 38 41 42 44 46 46 48 50 52 62 68 68 70 68 69 66 65 63 63 67 64 66 61 62 60 58 59 58 60 62 64 64 63
22 22 23 26 29 31 35 35 34 35 36 37 38 39 38 38 39 41 43 45 46 46 49 54 58 60 67 70 69 68 65 66 63 64 67 66 68 68 67 60 60 58 61 64 62 65 65 64 62
21 21 19 21 25 28 31 31 33 33 34 36 37 36 37 38 38 40 41 45 49 51 52 54 51 53 64 69 67 65 63 63 63 63 64 67 68 67 67 61 59 59 61 60 61 63 63 62 62
21 15 15 17 20 23 28 31 33 33 32 32 34 33 34 35 38 42 44 46 49 52 56 56 57 56 63 67 64 67 69 65 63 63 64 66 68 68 66 62 59 66 59 61 60 60 61 61 67
11 14 14 15 16 20 22 26 28 29 29 31 32 33 33 35 38 40 43 44 48 51 57 60 60 63 64 62 65 62 63 64 64 63 64 67 67 68 67 64 63 63 60 62 59 62 63 64 64
13 16 16 18 18 19 22 23 25 27 29 30 32 34 35 36 37 38 40 43 45 51 59 62 64 68 62 57 59 61 61 63 64 64 67 67 68 68 68 64 65 64 61 62 65 64 66 66 65
14 17 19 21 23 22 22 23 25 26 27 29 31 32 33 34 35 36 39 42 46 53 59 62 64 65 64 59 64 62 63 62 64 65 68 68 68 68 67 67 65 66 60 63 64 66 68 65 64
15 15 18 19 21 25 25 25 26 26 28 29 30 32 33 34 35 37 38 42 44 49 57 58 62 63 65 66 65 67 66 66 65 66 66 67 68 68 67 67 66 65 62 60 69 68 67 61 63
13 13 14 17 20 18 25 19 24 25 25 27 28 30 31 32 33 34 37 40 44 45 48 53 59 61 62 68 68 70 64 63 63 66 66 67 68 67 67 68 66 66 62 68 65 65 65 66 61
13 14 14 18 19 20 19 17 20 23 23 25 28 29 30 31 32 32 33 35 38 42 46 54 57 59 63 67 68 66 66 64 65 65 66 68 68 68 67 68 67 67 65 68 66 65 66 64 59
16 15 14 19 22 18 19 18 17 19 21 22 24 24 26 26 27 29 31 36 38 41 44 51 59 63 65 67 68 69 68 67 65 67 66 67 67 67 68 67 68 69 67 67 64 66 66 63 60
15 14 10 10 14 16 18 16 19 23 19 19 22 23 26 28 31 34 34 34 39 44 49 57 62 64 66 66 67 68 69 69 69 68 66 67 66 66 68 68 68 66 67 66 66 66 63 63 61
17 15 8 7 8 8 14 15 15 20 22 22 22 26 28 31 33 37 41 40 35 44 56 61 62 64 66 66 68 69 70 67 67 68 66 65 64 64 68 67 67 66 66 65 65 61 60 62 62
20 20 17 12 11 12 6 15 19 20 20 23 23 31 36 42 46 47 46 44 50 58 63 64 64 65 66 67 68 69 69 69 67 69 68 64 66 65 67 67 66 65 65 64 64 59 62 62 64
23 20 27 14 14 8 6 10 12 18 18 18 23 32 37 49 51 50 51 53 60 64 65 66 66 66 67 67 68 67 68 68 68 67 65 65 66 65 66 66 65 64 63 63 64 62 63 64 64
24 26 28 26 12 5 5 7 17 19 23 26 27 30 32 47 54 56 57 61 64 64 65 66 66 66 66 66 66 67 66 66 65 65 65 66 66 66 64 63 62 61 62 63 65 65 63 63 63
28 31 32 31 19 12 16 16 26 29 27 30 29 29 31 48 57 58 61 62 62 63 64 64 65 65 65 65 65 65 64 64 65 65 65 65 64 62 60 59 59 59 61 62 62 61 61 62 61

GFSSGP_sfc_dewp_042.txt.gz
Dewpoint
55 44 41 31 25 21 16 12 10 11 10 10 17 25 30 37 42 41 43 50 63 64 69 72 74 74 74 76 76 76 76 76 76 76 76 75 74 73 73 71 70 68 64 63 61 59 59 59 59
44 35 38 26 23 17 15 10 11 10 19 25 30 31 34 35 44 41 44 53 66 65 69 70 75 74 74 75 76 76 76 76 76 76 75 74 74 73 72 70 68 67 64 62 60 59 59 61 61
53 51 27 19 19 19 14 12 8 12 26 31 32 34 35 38 45 45 51 59 67 67 66 70 75 74 74 74 75 75 75 75 75 75 75 74 73 72 71 70 68 65 62 61 60 61 62 62 62
41 37 24 19 17 15 18 18 14 20 34 33 32 33 37 44 45 48 49 57 66 66 64 73 74 74 74 73 73 74 74 75 75 74 74 73 72 72 71 70 68 67 63 63 63 64 64 63 64
46 33 21 15 13 15 17 15 12 27 30 31 32 33 37 42 49 49 51 55 60 63 64 72 74 74 74 74 73 73 73 73 73 73 73 72 72 71 70 69 68 67 67 65 65 66 66 66 66
36 30 23 17 16 14 14 15 14 23 27 31 31 33 36 42 50 49 49 54 56 60 64 71 74 74 74 74 73 73 73 73 72 72 72 72 71 71 70 69 68 68 68 68 68 67 68 68 68
41 34 25 17 14 14 14 15 13 14 19 27 30 30 35 41 48 47 48 49 52 57 66 70 70 73 74 73 73 73 73 72 72 72 72 71 71 70 70 69 68 68 68 69 68 69 69 69 69
40 37 33 29 25 20 16 14 14 14 15 23 29 31 37 46 47 45 43 44 47 53 62 68 70 68 69 70 73 73 72 72 72 72 71 71 70 70 70 69 69 69 69 69 69 69 70 70 70
33 33 31 29 27 25 23 18 16 15 15 19 24 30 41 43 44 43 41 39 43 49 55 67 69 69 66 64 69 73 72 72 71 71 71 70 67 67 65 67 66 69 69 70 70 70 70 70 70
32 31 32 31 28 26 24 21 17 16 16 20 22 33 40 43 44 41 39 39 42 47 51 60 70 67 65 59 66 70 70 70 70 68 68 68 66 64 62 64 67 69 70 70 70 70 70 69 66
31 31 32 32 31 29 27 25 22 18 17 17 23 33 38 43 47 44 39 39 42 47 52 56 69 70 66 64 67 68 66 67 68 67 67 68 65 64 63 61 63 68 69 67 68 68 68 66 65
23 27 31 32 32 31 30 30 27 25 21 21 23 32 37 39 46 44 41 41 43 47 52 63 69 71 70 65 67 68 67 67 66 66 66 66 65 64 63 61 63 64 64 64 64 65 66 66 65
16 19 24 25 26 28 31 31 30 28 27 27 25 24 37 40 48 48 50 52 52 53 54 58 69 71 74 75 71 68 67 68 67 67 67 65 65 64 63 64 63 63 63 64 63 64 65 66 66
17 17 16 19 23 25 26 28 31 32 32 31 29 29 37 41 42 45 48 52 60 58 66 60 69 74 74 73 74 76 73 70 69 67 67 67 65 66 64 64 64 65 63 63 63 64 65 66 66
19 18 19 18 16 20 24 25 27 32 34 34 33 30 30 43 41 41 46 53 55 55 60 63 65 74 74 74 74 73 73 70 71 68 71 68 68 68 66 65 63 62 66 65 65 64 66 67 67
11 14 15 16 17 17 18 21 24 27 32 34 35 35 34 34 32 38 46 56 60 59 61 66 54 70 75 75 74 73 71 71 69 69 70 71 69 68 69 65 65 66 65 66 64 66 65 65 65
11 6 6 8 14 14 16 19 23 26 28 32 35 36 37 36 39 42 43 49 56 60 63 64 65 64 74 75 73 73 73 72 70 70 68 72 70 69 68 68 67 68 65 63 65 65 64 65 66
6 3 2 3 4 7 12 16 20 23 23 28 32 35 36 39 39 43 50 50 55 64 67 68 68 69 73 71 72 68 68 68 69 68 70 72 70 70 70 69 67 69 65 65 66 64 65 65 65
13 10 9 9 7 8 11 15 17 20 22 24 29 33 35 36 39 44 44 52 51 63 68 68 68 69 71 70 66 64 64 65 67 68 71 72 71 70 71 68 70 68 66 65 67 67 66 64 64
15 14 12 12 11 13 15 14 18 21 21 25 30 31 33 37 40 41 45 53 61 64 66 67 69 71 70 67 67 68 66 62 64 69 71 72 71 70 70 69 68 68 67 67 68 66 63 63 66
13 14 14 11 12 12 14 16 20 19 24 26 28 30 33 35 37 41 46 53 59 61 64 66 67 68 69 67 67 69 68 71 71 70 70 71 71 71 70 70 69 69 67 65 68 66 65 61 67
9 9 9 12 13 9 13 10 20 20 23 26 27 29 31 34 35 36 41 48 56 58 60 66 67 67 67 70 68 67 64 64 68 70 70 71 71 70 70 70 69 71 66 68 66 66 64 66 65
13 14 14 13 12 13 11 10 13 17 19 23 29 29 31 34 35 34 35 42 49 52 55 60 66 67 67 68 68 65 68 67 71 71 72 70 71 70 69 69 69 69 67 68 65 66 67 68 65
24 22 19 16 15 10 10 10 11 13 17 19 25 28 29 30 32 35 39 41 42 45 49 59 62 63 67 67 70 70 70 69 68 70 69 68 69 69 69 68 68 69 68 69 68 68 67 66 65
26 22 19 12 12 9 11 10 14 18 15 17 21 25 27 31 35 37 37 37 41 42 43 46 60 63 67 67 69 68 71 70 73 70 68 68 67 67 68 68 68 68 69 70 69 68 67 66 65
23 33 27 12 8 5 9 10 13 19 21 23 24 28 29 33 32 35 38 42 37 44 49 53 58 63 66 66 66 69 69 70 70 68 67 67 66 67 69 68 69 69 69 68 68 68 67 67 65
22 15 30 26 22 21 10 9 10 16 19 20 24 27 31 32 33 37 39 41 42 46 55 56 58 61 63 66 68 70 70 71 70 69 69 68 68 68 69 69 69 68 67 67 68 68 66 66 65
27 20 22 29 23 12 12 9 8 14 19 19 23 28 30 34 35 40 45 50 53 57 56 58 61 64 67 68 69 70 71 71 71 71 70 69 70 69 69 68 68 67 66 67 67 66 66 65 66
20 21 24 29 26 17 14 12 22 34 37 37 30 28 34 33 33 41 50 52 53 60 63 66 64 66 67 67 68 70 70 71 71 70 69 69 69 68 68 66 65 63 65 66 66 65 64 64 64
17 18 29 17 21 22 19 19 32 36 38 37 38 38 33 36 51 51 53 60 57 58 62 65 66 65 66 68 70 70 69 69 68 67 67 68 67 66 65 65 63 63 62 64 64 63 63 63 63

GFSSGP_sfc_dewp_045.txt.gz
Dewpoint
60 49 43 40 25 24 21 20 16 12 12 13 19 30 38 43 43 43 51 62 64 68 71 72 74 75 76 77 77 77 76 76 76 76 76 75 74 73 72 72 70 68 65 63 62 61 60 60 60
52 43 37 36 23 21 21 20 15 15 13 26 31 32 35 45 43 54 59 63 65 67 70 69 74 75 76 76 76 76 76 76 76 76 75 74 74 73 72 70 68 66 65 63 61 59 59 61 62
54 50 46 24 20 21 21 20 18 18 18 32 33 34 36 45 44 50 61 63 65 67 68 70 74 74 75 76 76 76 76 76 76 76 75 74 74 73 72 70 68 66 64 62 61 61 62 63 63
44 44 37 20 18 18 21 21 21 19 23 33 32 34 41 47 48 55 65 63 64 65 68 73 73 73 75 76 76 76 76 76 76 75 75 74 73 73 72 70 69 67 64 63 63 64 64 64 64
50 42 26 20 18 17 17 18 16 15 18 33 33 37 42 49 52 64 65 64 63 62 68 72 74 73 74 75 75 75 75 75 75 75 75 74 73 72 71 70 68 67 66 65 65 67 67 67 67
43 35 28 23 21 20 18 16 15 14 26 28 28 35 39 49 50 59 63 63 63 62 70 71 74 74 73 73 74 74 74 74 74 74 74 74 73 72 71 70 69 68 68 68 68 68 68 68 69
39 37 28 24 21 20 19 16 14 15 16 18 27 33 43 47 48 54 59 62 63 65 69 69 72 73 74 73 73 73 73 73 73 73 73 73 72 72 71 70 69 69 69 69 69 69 69 69 69
32 41 39 36 33 30 30 28 25 19 15 17 25 27 36 48 48 50 56 57 61 68 69 69 70 72 72 72 73 72 72 72 72 72 72 72 72 71 71 69 69 69 69 69 69 69 70 70 70
34 30 36 36 34 32 32 27 26 24 19 18 20 27 43 48 47 47 49 52 59 67 68 68 68 70 70 71 72 73 72 72 72 72 72 71 69 69 68 68 68 69 69 70 70 70 70 70 70
32 31 30 34 34 32 30 27 26 25 21 20 22 29 45 46 45 43 44 45 56 65 67 67 68 67 66 65 69 70 70 70 70 69 69 68 66 66 66 67 69 69 70 70 70 70 70 70 68
27 29 30 31 32 33 32 32 31 30 26 21 21 25 39 45 45 42 43 41 47 61 67 68 68 67 63 61 66 69 69 69 69 68 67 67 66 64 65 63 65 65 68 66 68 69 69 68 67
18 22 30 30 30 30 30 32 31 31 32 27 27 30 33 38 45 46 46 43 54 57 65 68 67 65 62 61 66 67 66 67 67 67 66 66 65 63 62 61 62 63 65 65 65 66 67 66 65
16 18 19 23 29 29 30 29 28 29 32 33 30 32 32 31 43 50 56 57 54 57 61 64 67 65 63 63 66 66 65 65 65 66 66 65 64 62 61 61 61 61 64 65 63 64 65 65 65
13 14 16 18 17 17 23 25 26 28 31 32 32 34 33 32 41 45 55 58 55 54 56 55 60 68 66 65 67 66 66 66 66 66 66 65 64 62 61 59 61 61 62 63 62 61 63 64 64
17 14 15 17 18 18 19 17 21 26 29 29 33 34 34 34 35 41 49 56 55 57 57 58 64 68 68 67 69 70 68 68 66 66 66 65 63 64 61 61 61 61 61 62 62 61 63 64 64
16 14 11 14 18 18 18 16 18 21 25 28 31 32 33 37 37 42 42 48 52 52 52 58 66 70 71 70 70 70 70 69 68 67 67 67 65 64 64 63 61 63 63 61 63 61 61 62 65
15 11 9 9 10 12 15 15 18 20 22 26 27 31 34 34 38 41 43 47 51 53 54 57 63 70 70 72 72 71 69 68 68 68 68 68 67 65 66 63 64 62 63 63 61 64 61 62 63
10 8 7 7 7 6 4 6 13 18 19 23 24 27 33 34 33 34 41 45 47 51 51 57 59 68 71 72 71 70 70 70 69 67 68 69 68 67 65 66 65 64 62 62 63 61 62 61 63
13 14 15 16 15 13 12 12 13 14 15 18 21 21 25 32 33 34 38 44 51 56 61 59 59 63 68 68 68 67 66 65 66 66 66 68 70 68 67 65 66 67 63 63 62 61 60 61 61
13 12 12 15 17 14 14 13 14 14 16 18 22 23 23 34 35 34 33 35 44 52 60 60 58 60 65 65 63 61 61 62 61 64 66 67 69 69 67 66 67 65 66 63 63 63 62 61 60
10 11 11 11 14 14 14 13 13 14 16 17 20 27 30 30 32 33 38 42 45 55 61 60 59 59 60 61 63 63 63 62 64 65 63 68 69 69 69 67 66 67 65 65 64 63 60 59 60
9 15 15 17 14 9 16 11 13 13 13 17 17 23 27 28 33 31 33 40 47 55 59 59 61 62 63 62 61 61 58 58 57 64 67 69 69 69 69 68 67 68 66 64 65 63 62 61 60
21 23 22 22 20 17 14 12 11 16 13 13 16 15 20 28 32 36 33 34 39 52 54 59 62 61 59 61 60 61 61 62 63 67 67 68 68 69 69 68 67 68 67 65 64 63 62 63 62
29 25 23 23 19 17 16 14 13 12 11 13 15 18 17 19 28 32 34 31 37 40 47 49 59 60 59 60 64 62 63 63 65 68 67 67 67 68 68 68 68 68 67 66 65 64 64 64 63
24 27 25 19 15 14 15 15 13 13 14 17 19 19 19 18 31 31 28 35 33 38 41 44 54 57 62 61 64 63 63 64 65 68 67 66 66 65 66 67 67 68 67 66 65 65 64 63 63
21 29 24 18 19 23 23 16 13 18 14 29 28 24 24 24 23 30 34 31 34 35 36 40 41 54 61 62 66 66 64 69 68 68 67 66 66 66 66 67 67 67 67 66 66 65 64 63 63
18 27 31 30 28 25 20 18 21 29 36 36 35 36 36 40 31 27 30 38 38 36 37 38 39 49 63 62 65 67 65 68 68 67 67 66 66 66 67 67 67 67 67 66 65 65 63 63 62
23 26 26 30 22 16 16 15 21 32 34 34 34 35 40 43 40 29 32 34 37 37 45 47 53 60 62 63 63 66 68 69 67 67 66 66 66 66 67 67 67 66 66 65 64 63 62 62 62
20 30 33 32 27 19 17 20 36 35 34 34 35 34 39 44 42 44 39 50 53 50 52 53 59 62 64 66 67 68 69 69 68 67 67 67 67 67 67 67 66 65 65 64 62 61 62 61 61
23 28 31 28 27 28 25 22 36 35 34 36 35 37 40 42 44 46 49 56 60 60 61 61 64 65 65 66 67 68 69 69 69 68 68 68 67 67 66 65 63 63 62 62 62 62 62 61 60

GFSSGP_sfc_dewp_048.txt.gz
Dewpoint
56 52 43 39 24 24 22 22 21 19 16 17 16 22 36 43 42 40 54 58 63 67 71 73 76 77 77 77 76 76 76 76 76 76 75 74 74 72 72 72 71 69 66 64 63 62 61 61 60
53 49 38 35 22 21 21 23 21 21 19 17 18 34 42 44 46 57 57 61 61 68 70 71 75 76 77 76 76 76 76 76 76 75 75 74 73 73 71 70 69 67 65 64 62 61 61 62 62
55 50 45 30 22 21 20 22 21 21 22 21 23 33 44 44 55 55 59 60 63 67 69 69 75 75 76 76 76 76 76 76 76 75 75 74 74 73 72 70 69 66 64 63 61 61 62 63 63
45 44 44 23 18 19 22 22 20 20 18 16 30 35 46 48 51 60 61 60 61 66 67 71 74 75 76 76 76 76 76 76 76 75 75 74 74 73 72 70 69 68 65 63 62 64 64 64 64
49 41 31 21 19 18 18 18 17 15 15 15 28 34 44 50 62 61 61 59 60 63 65 71 74 75 75 76 76 76 76 75 75 75 75 74 74 73 72 70 69 68 66 64 65 67 67 67 66
46 36 29 26 25 25 24 23 19 16 16 20 24 39 45 57 61 60 59 58 58 62 66 70 73 74 75 75 75 75 75 75 75 75 75 75 74 73 72 71 70 69 68 68 68 68 68 68 69
41 36 28 26 25 26 26 30 30 23 24 19 19 30 46 55 59 61 58 58 57 61 66 68 70 73 74 75 75 75 75 75 75 74 74 74 74 73 72 71 70 70 69 69 69 69 69 69 69
34 41 40 39 35 36 36 34 30 28 25 22 22 27 44 48 60 61 60 58 61 67 66 69 70 70 71 72 74 74 74 74 74 74 74 74 73 72 71 70 70 70 70 70 70 70 69 69 70
33 30 34 39 39 37 36 34 34 31 28 29 22 26 44 49 55 57 60 61 66 66 66 68 70 71 70 70 71 73 73 73 73 73 73 72 70 70 69 69 69 69 69 70 70 70 70 70 69
29 31 30 33 38 37 35 33 33 33 33 32 32 28 35 49 53 55 57 59 64 65 67 66 68 69 70 69 70 70 70 70 70 70 70 69 67 67 67 68 69 69 69 70 70 70 70 69 68
25 23 29 30 32 33 32 32 32 31 31 32 32 28 29 37 44 51 54 57 62 64 66 66 65 67 66 65 69 70 69 69 69 68 68 67 66 66 67 65 67 66 68 66 68 68 68 67 67
18 19 22 27 29 29 28 28 27 28 30 33 33 33 31 34 39 45 51 53 59 64 66 66 66 64 63 62 67 68 67 68 68 68 67 67 66 64 64 64 64 64 64 65 65 66 67 67 67
17 17 17 19 20 29 30 29 28 28 30 31 31 32 34 35 44 57 56 57 57 65 67 68 66 65 63 61 64 66 65 66 66 67 66 66 65 64 62 62 61 62 64 64 64 65 66 66 66
16 17 17 16 16 19 19 20 23 26 29 28 30 30 34 33 43 52 56 55 58 62 64 66 66 69 67 62 63 64 65 65 64 64 65 65 64 62 62 61 61 61 63 64 64 63 63 64 64
20 16 16 15 18 17 19 17 18 21 23 25 30 29 31 35 36 50 54 59 57 57 58 61 62 61 63 64 64 64 65 65 64 64 65 65 64 63 61 60 59 61 61 62 63 61 62 63 64
18 16 11 13 13 16 19 15 17 20 20 21 25 28 28 36 37 41 50 54 55 55 53 54 58 59 65 64 65 66 66 66 66 65 66 66 65 64 62 61 59 61 61 61 62 61 60 62 63
16 13 11 11 11 11 16 14 18 20 20 19 19 27 27 27 37 39 47 53 53 54 53 52 53 61 66 66 67 68 69 67 67 67 66 66 66 64 64 62 62 62 62 61 61 61 61 60 61
15 11 11 12 10 14 12 12 14 16 17 17 20 21 26 27 32 37 39 45 50 53 53 52 51 53 66 67 67 67 68 68 68 68 67 67 67 66 64 64 63 61 61 62 61 61 62 60 62
20 17 14 14 16 16 15 15 15 16 17 17 19 19 22 25 26 32 37 39 45 51 52 53 53 57 65 66 67 67 66 66 67 67 67 68 68 67 64 65 64 63 61 61 62 61 62 61 62
11 11 11 13 15 13 14 14 15 16 16 16 17 20 22 24 26 26 32 38 40 44 52 51 56 61 67 66 66 65 65 65 65 67 67 67 68 68 67 65 65 64 63 62 62 61 60 61 61
13 12 20 20 23 21 15 13 12 15 17 17 17 20 23 27 29 30 34 38 38 39 48 58 55 61 66 66 66 62 62 62 62 62 63 65 68 69 68 66 66 65 64 62 62 62 60 59 60
20 27 25 23 22 19 21 15 16 14 15 16 15 16 20 24 26 30 31 34 40 45 50 57 58 57 63 63 61 60 58 57 57 57 64 64 68 69 68 67 66 67 65 64 63 63 60 60 59
21 29 25 25 22 21 20 16 16 16 15 15 16 15 18 19 19 23 26 30 34 43 56 59 59 59 59 60 59 59 56 57 59 63 62 65 67 69 69 67 66 66 66 65 64 63 62 62 62
29 24 25 27 23 19 18 17 14 15 15 15 22 30 29 32 26 23 29 34 36 40 50 57 59 59 59 59 59 57 56 58 61 63 64 65 66 67 68 68 67 67 67 65 65 65 63 63 63
25 21 19 19 15 16 19 20 17 18 28 35 35 35 35 37 38 40 37 28 30 32 42 50 56 56 57 57 58 59 58 58 61 64 65 65 65 65 67 67 67 68 67 66 66 65 64 62 62
20 22 20 16 17 20 24 19 20 34 35 35 34 34 33 37 40 42 44 41 29 32 34 42 48 54 56 56 55 59 59 60 63 66 67 66 66 66 66 66 66 67 67 67 66 64 64 64 63
22 24 27 23 29 27 23 21 21 32 32 32 31 32 33 33 39 41 44 44 45 32 32 37 40 46 50 56 57 59 61 64 65 66 67 66 65 66 66 66 66 67 67 66 64 64 64 64 62
22 24 21 25 20 19 19 18 18 31 31 32 30 31 33 34 36 40 43 43 47 50 39 35 39 41 50 56 60 63 63 67 67 67 66 66 65 66 66 65 65 66 66 65 64 64 64 62 61
22 25 31 30 30 22 20 18 33 34 32 32 33 32 34 37 38 41 42 43 45 50 53 41 41 46 58 61 62 65 66 66 66 66 66 65 65 66 66 66 66 66 66 65 64 62 61 61 60
27 28 31 26 27 31 29 23 25 33 33 34 33 34 37 38 41 43 43 44 47 48 52 55 52 57 61 63 64 65 67 66 66 66 66 66 66 67 67 66 66 65 64 63 61 61 62 60 59